TimeEDT,TemperatureF,Dew PointF,Humidity,Sea Level PressureIn,VisibilityMPH,Wind Direction,Wind SpeedMPH,Gust SpeedMPH,PrecipitationIn,Events,Conditions,WindDirDegrees,DateUTC
12:53 AM,37.4,37.4,100,-9999,0.0,NW,27.6,-,N/A,Fog,Fog,320,2013-08-06 04:53:00
1:51 AM,37.4,37.4,100,-9999,0.0,NW,24.2,-,N/A,Fog,Fog,320,2013-08-06 05:51:00
2:55 AM,37.4,37.4,100,-9999,0.1,NNW,10.4,-,N/A,Fog,Fog,330,2013-08-06 06:55:00
3:57 AM,37.6,37.0,98,-9999,120.0,NNW,13.8,-,N/A,,Partly Cloudy,340,2013-08-06 07:57:00
4:50 AM,39.2,33.8,81,-9999,120.0,North,18.4,-,N/A,,Partly Cloudy,360,2013-08-06 08:50:00
5:48 AM,39.2,35.6,87,-9999,120.0,North,6.9,-,N/A,,Mostly Cloudy,10,2013-08-06 09:48:00
6:53 AM,42.8,33.8,70,-9999,120.0,NE,4.6,-,N/A,,Mostly Cloudy,50,2013-08-06 10:53:00
7:51 AM,42.8,35.6,76,-9999,120.0,SE,5.8,-,N/A,,Mostly Cloudy,130,2013-08-06 11:51:00
8:50 AM,44.6,37.4,76,-9999,120.0,SSE,6.9,-,N/A,,Mostly Cloudy,150,2013-08-06 12:50:00
9:53 AM,46.4,41.0,81,-9999,120.0,SSE,6.9,-,N/A,,Mostly Cloudy,150,2013-08-06 13:53:00
10:53 AM,46.4,41.0,81,-9999,120.0,South,4.6,-,N/A,,Mostly Cloudy,180,2013-08-06 14:53:00
11:49 AM,48.2,41.0,76,-9999,100.0,South,4.6,-,N/A,,Mostly Cloudy,190,2013-08-06 15:49:00
12:48 PM,48.2,41.0,76,-9999,100.0,SSE,6.9,-,N/A,,Mostly Cloudy,160,2013-08-06 16:48:00
2:56 PM,48.2,41.0,76,-9999,100.0,South,6.9,-,N/A,,Mostly Cloudy,180,2013-08-06 18:56:00
3:53 PM,50.0,41.0,71,-9999,100.0,South,9.2,-,N/A,,Mostly Cloudy,190,2013-08-06 19:53:00
4:55 PM,46.4,42.8,87,-9999,100.0,South,11.5,17.3,N/A,,Overcast,190,2013-08-06 20:55:00
5:55 PM,46.4,41.0,81,-9999,100.0,South,11.5,-,N/A,,Mostly Cloudy,180,2013-08-06 21:55:00
6:54 PM,44.6,41.0,87,-9999,110.0,SW,10.4,-,N/A,,Mostly Cloudy,220,2013-08-06 22:54:00
7:54 PM,44.6,39.2,81,-9999,110.0,SW,11.5,-,N/A,,Scattered Clouds,220,2013-08-06 23:54:00
8:55 PM,44.6,39.2,81,-9999,100.0,WSW,10.4,-,N/A,,Partly Cloudy,240,2013-08-07 00:55:00
9:57 PM,44.6,39.2,81,-9999,100.0,WSW,10.4,-,N/A,,Partly Cloudy,250,2013-08-07 01:57:00
10:57 PM,44.6,32.0,61,-9999,100.0,SSW,6.9,-,N/A,,Partly Cloudy,200,2013-08-07 02:57:00
11:55 PM,44.6,30.2,57,-9999,100.0,SSE,6.9,-,N/A,,Partly Cloudy,160,2013-08-07 03:55:00